Погода в Якутске

Погода в Якутске : погода сейчас, прогноз погоды и архив. Всё, что Вы хотите узнать о погоде в Якутске!

Хотите узнать прогноз погоды в Якутске? Тогда Вам сюда: Погода в Якутске

Поиск расширенной информации на нашем сайте:

Другие новости

Новости СМИ2

Главная страница сайта

Новости сайта

03.07.2017

Напоминаем, что на нашем специализированном сайте Метеоцентр.Азия вы можете получить высокодетализированные автоматические прогнозы погоды по пунктам России, СНГ и мира в авиационном формате (включающие направление и скорость ветра, видимость, явления погоды, количество и форму облачности, нижнюю и верхнюю границу облачности).


Погода в Якутске - сегодня

Время (UTC), дата Ветер
(°,м/с) 
Видим.   Явления Облачность Т
(°С)
Тd
(°С)
f(%) Тe
(°С)
Pmin
(гПа)
dP
(гПа)
Po
(мм)
O2
(г/м3)
Тmin Tmax R s Состояние
почвы
15 09.12.17 220 (ЮЗ) 20000 м    ясно 
-35.1 -37.8 76 -36  1035.1  1.4  765  356           
18 09.12.17 260 (З) 20000 м    ясно 
-34.9 -37.7 75 -36  1036.4  1.2  766  356           
21 09.12.17 210 (ЮЗ) 20000 м    ясно 
-35.3 -38.1 75 -40  1038.1  1.7  767  357           
00 10.12.17 270 (З) 20000 м    8/0 верхняя 
[Ci fib]
-34.7 -37.6 75 -39  1039.7  1.6  769  357  -35.4      15  равномерный
сухой снег
100% 
03 10.12.17 260 (З) 20000 м    10/0 средняя, верхняя 
[Ac trans|Ci fib]
-34.6 -37.5 75 -39  1040.9  1.2  770  357           
06 10.12.17 290 (З) 20000 м    10/0 средняя, верхняя 
[Ac trans|Ci fib]
-33.5 -36.5 74 -38  1042  1.1  770  356           
09 10.12.17 290 (З) 20000 м  слаб. снег  10/0 средняя, верхняя 
[Ac trans|Ci fib]
-33.4 -36.4 74 -34  1043.6  1.6  772  356           
12 10.12.17 240 (ЮЗ) 20000 м  слаб. снег  10/0 средняя, верхняя 
[Ac trans|Ci fib]
-33.9 -37 73 -38  1044.7  1.1  772  357    -33.3  0.0     
15 10.12.17 210 (ЮЗ) 20000 м  слаб. снег  10/0 средняя, верхняя 
[Ac trans|Ci fib]
-34.5 -37.4 75 -35  1045.1  0.3  773  358           
18 10.12.17 230 (ЮЗ) 20000 м  {снег}  6/0 верхняя 
[Ci fib]
-36.4 -39 77 -37  1046.3  1.1  773  362           
21 10.12.17 300 (СЗ) 4000 м  дымка  6/0 верхняя 
[Ci fib]
-38.2 -40.9 75 -39  1047.1  0.7  774  365           
00 11.12.17 250 (З) 20000 м    10/0 верхняя 
[Ci fib]
-36.3 -39.3 74 -37  1048  775  362  -38.3    0.0  15  равномерный
сухой снег
100% 
03 11.12.17 290 (З) 20000 м    10/0 верхняя 
[Ci fib]
-35.6 -38.7 73 -37  1047.6  -0.3  774  361           
06 11.12.17 тихо ()   20000 м    10/0 верхняя 
[Ci fib]
-35.6 -38.7 73 -36  1048.2  0.5  775  361           
09 11.12.17 тихо ()   20000 м    10/0 верхняя 
[Ci fib]
-37.7 -40.4 76 -38  1047.7  -0.6  774  364           
12 11.12.17 200 (Ю) 10 км  дымка  10/0 верхняя 
[Ci fib]
-37.5 -40.2 76 -39  1047.9  0.2  775  364    -35.4       
15 11.12.17 280 (З) 1000 м  дымка  10/0 верхняя 
[Ci fib]
-38.2 -40.9 75 -39  1046.6  -1.4  773  364           
18 11.12.17 260 (З) 1000 м  дымка  10/0 верхняя 
[Ci fib]
-39.5 -42.2 75 -41  1046.5  -0.1  773  366           
21 11.12.17 тихо ()   1000 м  дымка  10/0 верхняя 
[Ci fib]
-39.4 -42.2 75 -39  1045.8  -0.7  773  366           
00 12.12.17 270 (З) 0500 м  туман  10/0 верхняя 
[Ci fib]
-39.8 -42.6 75 -41  1045.4  -0.4  773  367  -40.3      15  равномерный
сухой снег
100% 
03 12.12.17 тихо ()   0500 м  туман  10/0 верхняя 
[Ci fib]
-39.5 -42.4 74 -40  1044.2  -1.2  772  366  -40.5         
06 12.12.17 210 (ЮЗ) 0500 м  переохл. туман  10/0 верхняя 
[Ci fib]
-39.4 -42.2 75 -41  1044.4  0.3  772  366           
09 12.12.17 270 (З) 0500 м  переохл. туман  10/0 верхняя 
[Ci fib]
-39.5 -42.3 75 -41  1044.3  -0.2  772  366           
12 12.12.17 тихо ()   0500 м  переохл. туман  ?/?  
[]
-39.3 -42.1 75 -39  1043.9  -0.3  772  365    -38.4       
15 12.12.17 280 (З) 0500 м  переохл. туман  ?/?  
[]
-39.4 -42.2 75 -41  1044  0.1  772  365           
Время (UTC), дата Ветер
(°,м/с) 
Видим.   Явления Облачность Т
(°С)
Тd
(°С)
f(%) Тe
(°С)
Pmin
(гПа)
dP
(гПа)
Po
(мм)
O2
(г/м3)
Тmin Tmax R s Состояние
почвы

Для получения пояснительной информации подведите курсор к названию столбца.

ПОГОДА в Якутске - архив

Всё, что Вы хотите узнать о погоде в Якутске - удобно и подробно!

Выберите нужную дату (начиная с 1 января 2015* года) и нажмите кнопку "Найти".
Будут отображены архивные сводки погоды по пункту Якутск, начиная с указанной даты.


Отображать данные в формате CSV (для использования в таблицах Excel)


Внимание! Наш архив погоды предназначен исключительно для личного некоммерческого использования в познавательных целях. Если Вам необходимы официальные справки о состоянии погоды (для производственных, юридических, коммерческих и т.п. целей), обращайтесь в органы Росгидромета.

*Примечание: данная дата относится к архиву по метеостанциям СССР (Россия, СНГ, Балтия).
Архив по метеостанциям Зарубежной Европы и Азии (кроме Китая) хранится 10 дней, по другим регионам земного шара (Китай, Африка, Америка, Австралия, Океания) - 1 день.

Якутск - район местоположения метеостанции


Название, широта, долгота, высота метеостанции:
Якутск 62°ш. 129.7°д. 101 м над ур. моря [Российская Федерация]

Дополнительная информация

В oтличие oт бoльшинства пoгoдных сайтoв мы публикуем пoдрoбную метеoинфoрмацию в детальнoм прoфессиoнальнoм фoрмате.

Характеристики температуры и влажнoсти вoздуха измеряются на высoте 2 м в тени вдали oт зданий и деревьев.
Скoрoсть ветра измеряется на высoте 10 м (на урoвне рoста челoвека скoрoсть ветра ниже в 1.5-2 раза). Если метеoстанция нахoдится в гoрoде или в лесу, тo скoрoсть ветра занижена на 2-4 м/с пo сравнению с oткрытым местoм. Скoрoсть ветра над акватoриями крупных рек и oзёр, а также на вершинах хoлмoв на 2-5 м/с выше, чем в oбычных услoвиях.
Атмoсфернoе давление в разных тoчках местнoсти мoжет значительнo oтличаться oт давления на метеoстанции, в зависимoсти oт услoвий рельефа (при пoдъёме на 10 м давление пoнижается примернo на 1 мм рт.ст.).